Location: Great Hallingbury
(51.8333°N, 0.1833°E)
Time: 22:37:34
(UTC+00:00)

Daily predictions for brighter satellites

Satellite Brightness Start Highest point End
(mag) Time Altitude Azimuth Time Altitude Azimuth Time Altitude Azimuth
Cosmos 1048 Rocket 4.4 16:54:05 10° NNW 16:58:58 40° NE 17:03:46 10° SE
Cosmos 1300 3.9 16:57:17 10° NNE 17:00:20 22° ENE 17:03:22 10° ESE
In-Cosmos 22 4.1 16:55:24 10° S 17:00:43 69° E 17:06:00 10° NNE
Iridium 4 Rocket 3.2 16:57:17 10° S 17:01:25 75° W 17:05:40 10° N
SL-16 R/B 3.7 17:02:31 10° NNW 17:06:24 18° NNE 17:10:15 10° ENE
SJ 16-02 1.4 17:02:55 10° SSW 17:07:20 88° WNW 17:11:49 10° NNE
Cosmos 2228 3.3 17:04:44 10° NNW 17:09:05 73° W 17:13:22 10° S
ATLAS CENTAUR R/B 3.4 17:06:50 10° NNW 17:09:32 16° N 17:12:06 10° NE
Cosmos 2184 Rocket 4.3 17:03:59 10° SSE 17:09:45 43° E 17:15:31 10° NNE
KORONAS-FOTON 4.1 17:06:53 10° SSE 17:10:29 44° E 17:14:07 10° NNE
RESURS DK-1 4.3 17:06:58 10° NW 17:10:48 36° WSW 17:14:37 10° S
Cosmos 1726 2.6 17:07:30 10° NNW 17:11:07 63° W 17:14:43 10° S
Cosmos 1271 Rocket 3.7 17:09:34 10° SSE 17:12:40 25° E 17:15:48 10° NE
CSL-04 Rocket 4.5 17:10:09 10° ESE 17:14:48 29° ENE 17:19:31 10° N
Cosmos 1833 4.4 17:09:23 10° SSW 17:14:58 59° ESE 17:20:37 10° NE
Cosmos 2181 Rocket 4.3 17:10:58 10° NNW 17:17:23 78° W 17:23:49 10° S
Cosmos 2333 4.3 17:11:45 10° NNW 17:17:33 88° ENE 17:23:15 10° SSE
Cosmos 2322 3.8 17:13:44 10° NNW 17:19:25 83° WSW 17:25:05 10° SSE
Cosmos 990 Rocket 4.2 17:14:18 10° SSW 17:19:33 79° WNW 17:24:50 10° NNE
ATLAS 5 CENTAUR R/B 1.7 17:17:06 10° SSW 17:21:18 62° SE 17:25:54 11° NE
Cosmos 1892 Rocket 3.6 17:16:55 10° S 17:21:23 75° E 17:25:52 10° NNE
Cosmos 1812 Rocket 4.2 17:22:24 10° N 17:26:31 35° ENE 17:30:38 10° SE
Cosmos 2298 Rocket 4.4 17:22:01 10° S 17:27:02 45° ESE 17:32:04 10° NE
AQUARIUS 4.3 17:23:05 10° SSE 17:27:35 80° WSW 17:32:07 10° NNW
CZ-4B R/B 3.6 17:26:15 10° NNW 17:28:43 22° WNW 17:31:11 10° WSW
Cosmos 1980 4.1 17:24:22 10° NNW 17:29:46 41° NE 17:35:07 10° ESE
CZ-4 R/B 2.0 17:26:45 10° SE 17:30:26 35° ENE 17:34:11 10° N
CZ-4C R/B 2.9 17:25:27 10° NW 17:32:21 75° NE 17:40:23 10° SE
Cosmos 1626 3.0 17:29:58 10° SSE 17:33:11 29° E 17:36:27 10° NNE
Okean 1-7 Rocket 3.6 17:29:23 10° S 17:33:46 90° W 17:38:14 10° N
Cosmos 2297 Rocket 3.9 17:32:06 10° ESE 17:34:00 12° E 17:34:16 12° E
H-2A R/B 3.5 17:31:15 10° S 17:35:01 57° W 17:38:51 10° NNW
CORIOLIS 4.4 17:30:12 10° SSE 17:35:35 77° WSW 17:40:59 10° NNW
Cosmos 2360 Rocket 3.7 17:30:36 10° NW 17:35:51 41° WSW 17:41:04 10° S
H-2A R/B 3.6 17:37:33 13° NE 17:37:40 13° NE 17:40:02 10° NNE
YAOGAN 1 3.1 17:34:21 10° SE 17:38:17 35° ENE 17:42:15 10° N
COSMOS 2428 2.7 17:33:15 10° NNW 17:39:02 86° ENE 17:44:48 10° SSE
Ariane Rocket 4.1 17:37:02 10° ESE 17:40:54 22° NE 17:44:46 10° N
YAOGAN 6 2.6 17:37:22 10° SSE 17:41:01 62° ENE 17:44:41 10° N
Cosmos 2074 Rocket 4.0 17:35:27 10° S 17:41:43 74° E 17:48:01 10° NNE
USA 267 3.4 17:35:54 13° ENE 17:41:46 76° NNW 17:48:18 10° WSW
Cosmos 494 Rocket 4.1 17:36:53 10° NNW 17:41:54 50° ENE 17:46:51 10° SE
Cosmos 2058 Rocket 3.7 17:37:45 10° NNW 17:42:03 58° W 17:46:19 10° S
NOAA 12 4.2 17:38:35 10° SSE 17:43:49 81° WSW 17:49:06 10° NNW
Cosmos 2219 Rocket 2.3 17:39:18 10° NNW 17:45:02 85° WSW 17:50:43 10° SSE
Cosmos 2227 Rocket 3.9 17:43:05 10° ESE 17:45:23 13° E 17:45:23 13° E
Cosmos 1242 Rocket 2.8 17:42:35 10° SSE 17:45:54 42° E 17:48:52 13° NNE
NOAA 11 4.5 17:43:10 10° SE 17:48:22 45° ENE 17:53:35 10° N
Starlink AQ 4.3 17:47:20 10° SSW 17:49:37 22° SE 17:50:28 19° ESE
Cosmos-2242 3.9 17:48:20 10° N 17:52:04 27° ENE 17:55:45 10° SE
Starlink AS 4.2 17:49:56 10° SSW 17:52:15 22° SE 17:53:00 20° ESE
Starlink BA 4.2 17:50:08 10° SSW 17:52:27 22° SE 17:53:11 20° ESE
Starlink AU 4.2 17:50:19 10° SSW 17:52:39 22° SE 17:53:23 20° ESE
Starlink AT 4.2 17:50:31 10° SSW 17:52:51 23° SE 17:53:35 20° ESE
Starlink BB 4.2 17:50:43 10° SSW 17:53:03 23° SE 17:53:46 20° ESE
Starlink BC 4.2 17:50:55 10° SSW 17:53:16 23° SE 17:53:58 21° ESE
Starlink BK 4.2 17:51:06 10° SSW 17:53:28 23° SE 17:54:10 21° ESE
Starlink AY 4.2 17:51:18 10° SSW 17:53:39 23° SE 17:54:22 21° ESE
Starlink AW 4.2 17:51:29 10° SSW 17:53:51 23° SE 17:54:33 21° ESE
Starlink BJ 4.2 17:51:39 10° SSW 17:54:00 23° SE 17:54:42 21° ESE
Starlink AV 4.2 17:51:51 10° SSW 17:54:12 23° SE 17:54:54 21° ESE
Starlink BD 4.2 17:52:03 10° SSW 17:54:25 23° SE 17:55:06 21° ESE
Starlink BE 4.2 17:52:14 10° SSW 17:54:37 23° SE 17:55:18 21° ESE
Starlink BM 4.2 17:52:26 10° SSW 17:54:49 23° SE 17:55:29 21° ESE
Starlink AX 4.2 17:52:38 10° SSW 17:55:01 23° SE 17:55:40 21° ESE
Starlink BH 4.2 17:52:51 10° SSW 17:55:14 23° SE 17:55:53 21° ESE
Starlink AZ 4.2 17:53:03 10° SSW 17:55:25 24° SE 17:56:04 22° ESE
Starlink BG 4.1 17:53:15 10° SSW 17:55:38 24° SE 17:56:17 22° SE
Starlink BF 4.1 17:53:27 10° SSW 17:55:50 24° SE 17:56:28 22° SE
Starlink BL 4.1 17:53:35 10° SSW 17:55:59 24° SE 17:56:38 22° ESE
Starlink AH 4.1 17:53:48 10° SSW 17:56:11 24° SE 17:56:49 22° SE
Starlink AC 4.1 17:53:59 10° SSW 17:56:23 24° SE 17:57:01 22° SE
Starlink X 4.1 17:54:11 10° SSW 17:56:35 24° SE 17:57:12 22° SE
Starlink AE 4.1 17:54:22 10° SSW 17:56:47 24° SE 17:57:25 22° SE
Starlink Z 4.1 17:54:35 10° SSW 17:56:59 24° SE 17:57:35 22° SE
Starlink AK 4.1 17:54:48 10° SSW 17:57:13 24° SSE 17:57:49 22° SE
Cosmos 1602 Rocket 3.7 17:53:03 10° S 17:57:19 51° E 18:01:35 10° NNE
Starlink AL 4.1 17:55:01 10° SSW 17:57:25 24° SSE 17:58:01 23° SE
Starlink AD 4.1 17:55:10 10° SSW 17:57:35 24° SSE 17:58:10 23° SE
Starlink Y 4.1 17:55:35 10° SSW 17:58:00 25° SSE 17:58:34 23° SE
Nadezhda 3 Rocket 3.9 17:51:48 10° N 17:58:05 78° ENE 18:04:25 10° SSE
Starlink AG 4.1 17:55:47 10° SSW 17:58:12 25° SSE 17:58:46 23° SE
Starlink W 4.1 17:55:56 10° SSW 17:58:22 25° SSE 17:58:57 23° SE
Starlink AJ 4.1 17:56:08 10° SSW 17:58:35 25° SSE 17:59:08 23° SE
Starlink AM 4.1 17:56:31 10° SSW 17:58:57 25° SSE 17:59:30 23° SE
Starlink AP 4.1 17:56:44 10° SSW 17:59:10 25° SSE 17:59:42 23° SE
Starlink AA 4.0 17:56:56 10° SSW 17:59:22 25° SSE 17:59:54 23° SE
Starlink AF 4.0 17:57:08 10° SSW 17:59:36 25° SSE 18:00:08 24° SE
Starlink AB 4.0 17:57:21 10° SSW 17:59:48 25° SSE 18:00:19 24° SE
Starlink AN 4.0 17:57:31 10° SSW 17:59:58 25° SSE 18:00:28 24° SE
Cosmos 2150 Rocket 3.9 17:56:00 10° SSW 18:01:08 74° ESE 18:05:57 12° NNE
COSMO-SKYMED 1 2.7 17:57:00 10° NNE 18:01:18 54° E 18:05:33 10° S
NOSS 2-1 (C) 4.3 17:57:21 10° NW 18:02:01 53° NE 18:07:07 16° ESE
Okean-O 3.0 17:57:49 10° S 18:02:14 66° WSW 18:06:40 10° NNW
NOSS 2-1 (D) 4.3 18:01:08 10° NW 18:05:51 55° NE 18:10:54 16° ESE
Timation 2 Rocket 4.0 18:00:37 10° SSW 18:06:35 60° ESE 18:11:35 16° NE
Cosmos 1937 Rocket 4.5 18:03:11 10° SW 18:08:14 47° WNW 18:13:23 10° NNE
Starlink T 3.8 18:06:24 10° SSW 18:08:57 29° SSE 18:09:09 29° SE
COSMOS 2487 4.5 18:06:31 10° WSW 18:09:28 25° NW 18:12:25 10° N
Starlink N 3.8 18:07:24 10° SSW 18:09:58 29° SSE 18:10:08 29° SE
Starlink AR 3.7 18:07:49 10° SSW 18:09:52 27° SSE 18:09:52 27° SSE
Starlink Q 3.8 18:08:44 10° SSW 18:11:18 30° SSE 18:11:26 30° SE
Starlink P 3.7 18:09:50 10° SSW 18:12:26 30° SSE 18:12:32 30° SE
Starlink U 3.7 18:10:57 10° SW 18:13:34 31° SSE 18:13:37 31° SSE
Cosmos 1758 Rocket 4.1 18:10:01 10° SSE 18:13:55 35° E 18:14:38 32° ENE
ARGOS 4.3 18:14:41 23° NE 18:14:41 23° NE 18:18:23 10° N
Cosmos 1461 4.3 18:10:14 10° NW 18:14:18 42° WSW 18:18:30 10° SSE
Starlink B 3.7 18:12:06 10° SW 18:14:42 32° SSE 18:14:44 32° SSE
Starlink D 3.7 18:14:55 10° SW 18:17:33 33° SSE 18:17:33 33° SSE
Cosmos 2341 Rocket 4.1 18:11:46 10° SSE 18:17:55 52° E 18:24:04 10° NNE
Starlink S 3.7 18:16:07 10° SW 18:18:43 34° SSE 18:18:43 34° SSE
Starlink C 3.7 18:17:15 10° SW 18:19:50 34° SSE 18:19:50 34° SSE
Cosmos 1626 Rocket 3.6 18:16:39 10° SSW 18:21:00 78° WNW 18:25:20 10° N
Starlink E 3.6 18:18:28 10° SW 18:21:01 35° SSE 18:21:01 35° SSE
CZ-2D R/B 3.1 18:18:08 10° SSE 18:21:55 65° ENE 18:25:44 10° N
Starlink J 3.6 18:19:40 10° SW 18:22:11 35° SSE 18:22:11 35° SSE
Cosmos 1125 Rocket 3.4 18:18:02 10° S 18:23:11 66° ESE 18:26:29 22° NE
CSL-04 Debris 4.1 18:18:09 10° SSE 18:23:33 85° ENE 18:28:59 10° NNW
Starlink V 3.6 18:20:51 10° SW 18:23:21 36° SSE 18:23:21 36° SSE
Cosmos 2082 Rocket 4.4 18:21:38 10° NW 18:24:33 14° NNW 18:27:28 10° N
Starlink H 3.6 18:22:05 10° SW 18:24:32 36° SSE 18:24:32 36° SSE
SKYMED 3 4.5 18:20:46 10° NNE 18:25:09 89° ESE 18:29:30 10° SSW
Starlink F 3.7 18:23:18 10° SW 18:25:44 36° S 18:25:44 36° S
Cosmos 1340 Rocket 3.1 18:22:27 10° NNW 18:26:22 67° W 18:30:18 10° S
NOSS 0 Rocket 4.1 18:20:19 10° NW 18:26:34 74° WSW 18:32:44 10° SSE
Starlink G 3.7 18:24:31 10° SW 18:26:55 37° S 18:26:55 37° S
SL-8 Rocket 4.2 18:21:30 10° SSE 18:27:27 46° E 18:33:24 10° NNE
Cosmos 2333 Rocket 3.5 18:22:29 10° NW 18:27:52 42° WSW 18:33:10 10° S
Starlink L 3.7 18:25:44 10° SW 18:28:06 37° S 18:28:06 37° S
Meteor 1-21 Rocket 4.3 18:23:46 10° S 18:29:08 51° E 18:34:09 12° NNE
Starlink A 3.7 18:26:58 10° SW 18:29:18 37° S 18:29:18 37° S
ATLAS CENTAUR R/B 4.0 18:24:38 10° WSW 18:30:37 84° NNW 18:41:31 23° ENE
Starlink R 3.7 18:28:12 10° SW 18:30:30 37° S 18:30:30 37° S
Starlink K 3.7 18:29:24 10° SW 18:31:40 37° S 18:31:40 37° S
Cosmos 2237 Rocket 2.1 18:26:53 10° NNW 18:32:35 89° ENE 18:38:12 10° SSE
Starlink M 3.8 18:30:34 10° SW 18:32:49 37° S 18:32:49 37° S
Cosmos 1269 Rocket 4.0 18:28:34 10° NNW 18:33:53 86° WSW 18:39:10 10° SSE
Meteor 1-24 Rocket 4.3 18:29:11 10° SSW 18:34:22 54° WNW 18:39:41 10° N
Cosmos 1300 4.2 18:32:35 10° NNW 18:36:09 38° W 18:39:41 10° SSW
Meteor 2-10 Rocket 3.5 18:31:40 10° N 18:37:06 58° ENE 18:42:16 10° SSE
SL-14 R/B 4.3 18:36:40 10° SSW 18:40:34 48° WNW 18:44:27 10° N
Cosmos 1825 Rocket 3.5 18:36:21 10° S 18:40:37 56° E 18:40:38 56° E
Cosmos 1939 Rocket 2.8 18:38:04 10° S 18:41:58 80° WSW 18:45:56 10° NNW
Cosmos 1607 3.9 18:40:29 10° SW 18:46:37 87° NW 18:49:39 33° NE
SJ 16-02 3.9 18:43:49 10° W 18:46:39 16° NW 18:49:28 10° N
Cosmos 1271 Rocket 4.5 18:45:14 10° SW 18:48:34 30° WNW 18:51:57 10° N
SKYMED 2 4.2 18:45:04 10° N 18:49:20 55° WNW 18:53:34 10° SSW
ATLAS CENTAUR R/B 2.8 18:46:01 10° NNW 18:48:43 26° N 18:48:43 26° N
SL-16 R/B 2.2 18:46:12 10° NNW 18:51:49 56° NE 18:52:42 51° E
NOSS 2-1 (E) 4.2 18:47:24 10° NW 18:52:31 86° NE 18:55:53 31° SE
Cosmos 1455 3.9 18:49:34 10° N 18:51:06 23° N 18:51:06 23° N
Cosmos 2218 Rocket 4.0 18:48:04 10° S 18:54:14 59° E 19:00:31 10° NNE
CSL-04 Rocket 4.3 18:49:25 10° S 18:54:49 59° WSW 19:00:19 10° NNW
Cosmos 2219 3.1 18:52:48 10° SSW 18:58:20 65° ESE 18:59:14 56° ENE
Cosmos 1339 Rocket 4.3 18:55:14 10° N 19:01:22 88° E 19:07:28 10° S
CZ-4 R/B 3.5 19:02:02 10° SSW 19:05:31 28° W 19:09:05 10° NW
ATLAS 5 CENTAUR R/B 2.9 19:02:07 10° W 19:06:16 35° NNW 19:07:27 31° N
Cosmos 864 Rocket 4.3 19:01:43 10° S 19:07:47 66° E 19:11:02 29° NNE
Cosmos 1626 4.3 19:05:19 10° SW 19:08:28 26° WNW 19:11:11 13° NNW
ADEOS Rocket 3.0 19:10:31 26° NNE 19:14:17 71° ESE 19:21:16 10° S
SJ-11-01 4.4 19:14:59 69° NNW 19:14:59 69° NNW 19:19:10 10° NNW
YAOGAN 1 4.4 19:10:35 10° SSW 19:14:26 31° W 19:18:18 10° NNW
H-2A R/B 2.9 19:18:10 36° N 19:18:10 36° N 19:21:11 10° N
Cosmos 2297 Rocket 2.3 19:11:21 10° SSW 19:16:07 57° SSE 19:16:07 57° SSE
Ariane Rocket 3.1 19:15:32 18° S 19:19:23 72° WSW 19:24:30 10° NNW
CZ-4C R/B 4.2 19:14:12 10° NW 19:20:47 39° WSW 19:28:09 10° S
CZ-2C R/B 4.1 19:23:52 35° N 19:23:52 35° N 19:27:09 10° N
USA 267 3.5 19:23:15 50° NE 19:24:30 57° N 19:30:53 10° WNW
Cosmos 1959 Rocket 4.3 19:19:57 10° S 19:26:10 88° WNW 19:32:20 10° N
Cosmos 2227 Rocket 2.6 19:23:03 10° SSW 19:27:16 50° S 19:27:16 50° S
Cosmos-2242 4.4 19:25:42 10° NNW 19:29:45 38° W 19:33:44 10° SSW
Cosmos 2251 Rocket 3.8 19:24:38 10° NNW 19:28:55 59° NNW 19:28:55 59° NNW
Cosmos 2366 rocket 3.9 19:27:49 10° SSW 19:34:02 82° W 19:40:22 10° N
ATLAS 5 CENTAUR R/B 3.3 19:35:36 10° NW 19:39:51 73° NE 19:40:35 68° ENE
Cosmos 724 4.4 19:35:07 10° SW 19:40:22 70° SW 19:40:22 70° SW
Cosmos 1727 Rocket 4.4 19:47:51 10° NNW 19:53:58 61° W 19:56:39 34° SSW
ARGOS 4.3 19:56:11 37° NNW 19:56:11 37° NNW 19:59:24 10° NNW
SL-16 R/B 3.9 20:30:44 10° NW 20:34:38 29° W 20:34:38 29° W
